Regional Weather Roundup
Issued by NWS

Home | Current Version | Previous Version | Graphics & Text | Print | Product List | Glossary On
Versions: 1 2 3 4 5 6 7 8 9 10 11 12 13 14 15 16 17 18 19 20 21 22 23 24 25 26 27 28 29 30 31 32 33 34 35 36 37 38 39 40 41 42 43 44 45 46 47 48 49 50
198
ASUS43 KIND 211959
RWRIN

WEATHER ROUNDUP FOR INDIANA
NATIONAL WEATHER SERVICE INDIANAPOLIS IN
400 PM EDT THU MAY 21 2015

NOTE: "FAIR" INDICATES FEW OR NO CLOUDS BELOW 12,000 FEET WITH NO
SIGNIFICANT WEATHER AND/OR OBSTRUCTIONS TO VISIBILITY.

* - STATION DOES NOT REPORT WEATHER SUCH AS PRECIPITATION OR FOG.

+ - STATION NOT QUALITY CONTROLLED BY THE NATIONAL WEATHER SERVICE.
    USE DATA WITH CAUTION...ESPECIALLY DEWPOINT AND RELATIVE
    HUMIDITY OBSERVATIONS.

INZ001>003-010>013-019-020-212100-
NORTHWEST INDIANA

CITY           SKY/WX    TMP DP  RH WIND       PRES   REMARKS
GARY /AIRPORT/ MOSUNNY   68  37  32 W12G23    30.06F

$$

LMZ046-743>745-212100-
SOUTHERN LAKE MICHIGAN

STATION/POSITION TIME  TEMP    WIND        PRES    WAVE
                       AIR SEA DIR/SP/G            HT
                 (UTC) (F)     (DEG/KT/KT) (MB)    (FT)
BURNS HARBOR     1900   58      20/  2/  2 1018.6F
MICHIGAN CITY    1900   53     210/  7/  8   N/A
5NW MICH CITY    1900   53 51  210/  4/  6   N/A     1

$$

INZ004-005-014>016-021>024-212100-
NORTH CENTRAL INDIANA

CITY           SKY/WX    TMP DP  RH WIND       PRES   REMARKS
GOSHEN         MOSUNNY   60  43  53 W12G26    30.04S
SOUTH BEND     SUNNY     63  32  31 NW16G22   30.06F

$$

INZ006>009-017-018-025>027-212100-
NORTHEAST INDIANA

CITY           SKY/WX    TMP DP  RH WIND       PRES   REMARKS
ANGOLA *+      MOSUNNY   61  52  72 NW12      30.03S
FORT WAYNE     MOSUNNY   59  38  45 W10G23    30.06F

$$

INZ028-029-035-036-043>045-051>053-212100-
WEST CENTRAL INDIANA

CITY           SKY/WX    TMP DP  RH WIND       PRES   REMARKS
GREENCASTLE +  MOSUNNY   59  34  38 W5        30.13S
LAFAYETTE      MOSUNNY   62  38  40 W9G25     30.09S
TERRE HAUTE    PTSUNNY   60  41  49 NW9       30.14S

$$

INZ030>032-037>040-046>048-054>057-064-065-212100-
CENTRAL INDIANA

CITY           SKY/WX    TMP DP  RH WIND       PRES   REMARKS
ANDERSON       PTSUNNY   57  37  47 NW12      30.09F
COLUMBUS       CLOUDY    55  41  58 NW9       30.13R
GREENWOOD *+   PTSUNNY   57  39  51 W8        30.12S
INDIANAPOLIS   PTSUNNY   58  39  49 VRB5      30.10S
-EAGLE CREEK   MOSUNNY   59  39  47 W6        30.10F
KOKOMO *+      MOSUNNY   63  39  42 NW8       30.09R
MT COMFORT *+  MOSUNNY   57  32  38 NW8       30.11S
SHELBYVILLE    PTSUNNY   58  41  53 W7        30.11R

$$

INZ033-034-041-042-049-050-058-059-212100-
EAST CENTRAL INDIANA

CITY           SKY/WX    TMP DP  RH WIND       PRES   REMARKS
MUNCIE         PTSUNNY   58  42  55 NW12      30.09R

$$

INZ060-061-067>069-081>083-085>088-212100-
SOUTHWEST INDIANA

CITY           SKY/WX    TMP DP  RH WIND       PRES   REMARKS
EVANSVILLE     CLOUDY    55  44  66 NW9       30.20R
HUNTINGBURG *+ CLOUDY    55  45  67 N10G16    30.18R

$$

INZ062-063-066-070>080-084-089>092-212100-
SOUTH CENTRAL AND SOUTHEAST INDIANA

CITY           SKY/WX    TMP DP  RH WIND       PRES   REMARKS
BLOOMINGTON    PTSUNNY   55  42  61 VRB6      30.14S
MADISON *+     CLOUDY    55  37  50 NW7       30.13S
SEYMOUR +      CLOUDY    59  41  51 NW12G17   30.13R

$$




USA.gov is the U.S. government's official web portal to all federal, state and local government web resources and services.